South Arkansas Regional At Goodwin Field El Dorado US
ICAO: KELD
IATA: ELD
Category: Medium
Scheduled Services: Yes

Elevation: 277 ft
TransAlt. 18000 ft.

Airport Communications:
FORT WORTH CNTR:126.32
ASOS:118.325
JONESBORO RDO:122.65
CTAF/UNICOM:123

KELD Zoom In..

Runways:

(A) RW 04 length 6601 ft width 150 ft
---- / hdg 43

(B) RW 13 length 5100 ft width 100 ft
---- / hdg 133

(C) RW 17 length 3733 ft width 75 ft
---- / hdg 178

(D) RW 22 length 6601 ft width 150 ft
ILS 111.10 / hdg 223

(E) RW 31 length 5100 ft width 100 ft
---- / hdg 313

(F) RW 35 length 3733 ft width 75 ft
---- / hdg 358

Location; KELD
Day. 23 / Time. 02.53 Zulu
* Altimeter: 29.86
* Temperature: 27° c. 80.6°f.
* Wind from: 030° Speed 05 kn.
Dewpoint: 23° c.
Visibility: 10 Statute Miles.
Clouds: Few 8500 ft.
Clouds: Scattered 1000 ft.

KELD 230253Z AUTO 03005KT 10SM FEW085 SCT100 27/23 A2986 RMK AO2 SLP107 60000 T02670233 53005 $


Wind From 030°
Speed 05 kn.

 
 
jpsmedia.com for Web Design worldairports.se 2018   terms of use